Le nostre stazioni meteo in Italia

Pubblicità
Il mio iltempo24.it
Antwerpen, Belgio (6450): Temperatura & dewpoint: 09.09.2019 21:00:00 - 15.09.2019 21:00:00 (CEST)Antwerpen, Belgio (6450): velocità del vento & gusts: 09.09.2019 21:00:00 - 15.09.2019 21:00:00 (CEST)Antwerpen, Belgio (6450): direzione del vento: 09.09.2019 21:00:00 - 15.09.2019 21:00:00 (CEST)Antwerpen, Belgio (6450): reduced air pressure: 09.09.2019 21:00:00 - 15.09.2019 21:00:00 (CEST)Antwerpen, Belgio (6450): visibility: 09.09.2019 21:00:00 - 15.09.2019 21:00:00 (CEST)
Data & Tempo tt [°C] td [°C] ff [km/h] ff [kn] fx [km/h] fx [kn] dd ppp [hPa] vv [km]
15.09.2019 21:00:00 18,0 14,0 9 5 - - N - 10
15.09.2019 20:00:00 19,1 13,2 15 8 - - N 1022,8 10
15.09.2019 19:00:00 21,3 8,8 18 10 25 14 NO 1022,6 10
15.09.2019 18:00:00 22,8 5,8 15 8 25 14 NO 1022,5 10
15.09.2019 17:00:00 23,3 6,3 18 10 - - NO 1022,9 10
15.09.2019 16:00:00 24,3 8,6 15 8 22 12 O 1023,2 10
15.09.2019 15:00:00 23,4 8,3 11 6 32 18 ONO 1023,6 15
15.09.2019 14:00:00 22,7 7,9 13 7 - - OSO 1024,2 10
15.09.2019 13:00:00 21,4 9,3 16 9 25 14 ONO 1024,8 10
15.09.2019 12:00:00 20,0 10,5 11 6 18 10 O 1025,1 10
15.09.2019 11:00:00 18,4 10,0 11 6 - - O 1025,2 10
15.09.2019 10:00:00 16,4 9,6 9 5 14 8 OSO 1024,8 10
15.09.2019 09:00:00 13,5 9,9 5 3 11 6 SO 1024,9 10
15.09.2019 08:00:00 8,9 7,5 0 0 - - N 1025,1 10
15.09.2019 07:00:00 7,0 6,0 4 2 7 4 SSE 1025,1 10
15.09.2019 06:00:00 7,4 6,8 2 1 4 2 - 1025,3 10
15.09.2019 05:00:00 8,3 7,1 4 2 - - SSE 1025,5 10
15.09.2019 04:00:00 7,6 6,7 4 2 4 2 S 1026,2 10
15.09.2019 03:00:00 8,9 7,2 0 0 4 2 N 1026,5 10
15.09.2019 02:00:00 10,0 7,6 0 0 - - N 1027,0 10
15.09.2019 01:00:00 10,4 8,2 0 0 4 2 N 1027,3 10
15.09.2019 00:00:00 12,0 8,5 2 1 4 2 SSE 1028,0 10
14.09.2019 23:00:00 12,6 8,9 2 1 - - - 1028,5 10
14.09.2019 22:00:00 13,7 8,8 2 1 4 2 SE 1029,1 10
14.09.2019 21:00:00 16,6 8,2 4 2 11 6 - 1029,1 10
14.09.2019 20:00:00 18,8 8,7 8 4 - - ESE 1029,0 10
14.09.2019 19:00:00 21,0 7,6 8 4 14 8 E 1029,3 10
14.09.2019 18:00:00 21,8 8,0 8 4 14 8 E 1029,5 10
14.09.2019 17:00:00 22,1 6,9 8 4 - - E 1030,2 10
14.09.2019 16:00:00 21,5 6,1 4 2 22 12 E 1031,0 20
14.09.2019 15:00:00 21,1 7,9 8 4 18 10 E 1032,0 10
14.09.2019 14:00:00 21,0 9,0 9 5 - - E 1032,5 10
14.09.2019 13:00:00 20,3 9,4 11 6 22 12 ESE 1033,0 10
14.09.2019 12:00:00 19,5 9,5 15 8 22 12 ESE 1033,8 10
14.09.2019 11:00:00 17,5 10,3 13 7 - - E 1034,0 10
14.09.2019 10:00:00 14,4 9,2 8 4 11 6 ENE 1034,6 10
14.09.2019 09:00:00 12,4 9,9 5 3 14 8 E 1034,1 10
14.09.2019 08:00:00 10,7 8,9 8 4 - - NE 1034,2 10
14.09.2019 07:00:00 10,1 8,9 2 1 7 4 - 1034,0 10
14.09.2019 06:00:00 11,0 9,3 4 2 7 4 NE 1034,4 10
14.09.2019 05:00:00 11,5 9,8 5 3 - - NE 1034,5 10
14.09.2019 04:00:00 12,2 10,5 5 3 11 6 NE 1034,4 10
14.09.2019 03:00:00 12,9 11,1 8 4 14 8 NE 1034,5 10
14.09.2019 02:00:00 13,8 11,2 5 3 - - NNE 1035,2 10
14.09.2019 01:00:00 13,9 11,6 8 4 14 8 NNE 1034,9 10
14.09.2019 00:00:00 15,0 12,1 8 4 14 8 N 1035,1 10
13.09.2019 23:00:00 15,0 11,8 9 5 - - N 1035,1 10
13.09.2019 22:00:00 16,1 12,1 11 6 22 12 N 1034,9 10
13.09.2019 21:00:00 17,1 12,1 15 8 25 14 N 1034,8 10
13.09.2019 20:00:00 18,4 12,1 15 8 - - N 1034,1 10
13.09.2019 19:00:00 19,5 12,3 15 8 25 14 N 1033,7 10
13.09.2019 18:00:00 20,9 12,6 15 8 22 12 N 1033,3 10
13.09.2019 17:00:00 21,0 12,4 9 5 - - N 1033,3 10
13.09.2019 16:00:00 21,4 12,2 11 6 22 12 N 1033,1 35
13.09.2019 15:00:00 22,0 13,3 13 7 25 14 NNO 1033,2 10
13.09.2019 14:00:00 20,3 14,0 15 8 - - N 1033,3 10
13.09.2019 13:00:00 20,3 15,4 15 8 32 18 N 1033,0 10
13.09.2019 12:00:00 19,1 16,6 2 1 11 6 - 1032,9 10
13.09.2019 11:00:00 18,4 16,6 8 4 - - OSO 1032,5 10
13.09.2019 10:00:00 17,6 16,2 11 6 18 10 OSO 1031,9 10
13.09.2019 09:00:00 17,0 16,0 8 4 14 8 O 1031,6 10
13.09.2019 08:00:00 16,7 15,9 7 4 - - O 1031,1 4,5
13.09.2019 07:00:00 17,6 14,7 13 7 22 12 O 1030,5 10
13.09.2019 06:00:00 17,7 14,6 15 8 25 14 O 1030,0 10
13.09.2019 05:00:00 17,9 14,6 13 7 - - O 1029,9 10
13.09.2019 04:00:00 18,0 14,7 13 7 29 16 O 1029,8 10
13.09.2019 03:00:00 18,1 14,8 15 8 36 19 O 1029,6 10
13.09.2019 02:00:00 18,4 14,7 18 10 - - O 1029,6 10
13.09.2019 01:00:00 18,6 14,6 16 9 32 18 OSO 1029,5 10
13.09.2019 00:00:00 18,8 14,2 22 12 40 21 OSO 1029,7 10
12.09.2019 23:00:00 19,4 14,4 21 11 - - OSO 1029,4 10
12.09.2019 22:00:00 19,9 15,7 11 6 22 12 OSO 1029,4 10
12.09.2019 21:00:00 20,1 15,7 13 7 25 14 SO 1029,1 10
12.09.2019 20:00:00 21,0 15,4 15 8 - - SO 1028,9 10
12.09.2019 19:00:00 22,0 14,7 13 7 25 14 OSO 1028,9 10
12.09.2019 18:00:00 22,1 13,6 16 9 32 18 O 1028,7 10
12.09.2019 17:00:00 22,6 12,6 21 11 - - OSO 1028,6 10
12.09.2019 16:00:00 23,1 11,9 16 9 32 18 OSO 1028,8 10
12.09.2019 15:00:00 22,2 12,1 16 9 29 16 O 1028,8 10
12.09.2019 14:00:00 21,6 12,0 16 9 - - O 1028,9 10
12.09.2019 13:00:00 21,0 12,6 22 12 32 18 O 1028,7 30
12.09.2019 12:00:00 19,7 14,1 18 10 32 18 OSO 1028,6 10
12.09.2019 11:00:00 18,8 15,0 15 8 - - O 1028,2 10
12.09.2019 10:00:00 18,7 15,1 15 8 25 14 SO 1027,5 10
12.09.2019 09:00:00 17,4 15,7 11 6 18 10 SO 1026,8 10
12.09.2019 08:00:00 17,3 15,9 13 7 - - SO 1026,3 10
12.09.2019 07:00:00 17,2 16,2 13 7 22 12 OSO 1025,7 10
12.09.2019 06:00:00 17,6 16,2 11 6 25 14 SO 1025,4 10
12.09.2019 05:00:00 17,5 16,1 13 7 - - SO 1025,1 10
12.09.2019 04:00:00 17,6 16,4 11 6 18 10 SO 1024,9 10
12.09.2019 03:00:00 17,5 16,3 9 5 18 10 SO 1024,7 10
12.09.2019 02:00:00 17,4 16,4 11 6 - - SO 1024,4 10
12.09.2019 01:00:00 17,3 16,3 13 7 22 12 OSO 1024,0 10
12.09.2019 00:00:00 17,2 16,3 13 7 25 14 OSO 1023,8 10
11.09.2019 23:00:00 17,1 16,1 13 7 - - OSO 1023,6 10
11.09.2019 22:00:00 17,0 16,1 18 10 29 16 SO 1023,2 10
11.09.2019 21:00:00 16,7 16,0 15 8 32 18 SO 1022,7 3,5
11.09.2019 20:00:00 18,1 14,7 15 8 - - SO 1022,0 10
11.09.2019 19:00:00 17,8 14,5 13 7 29 16 SO 1022,0 10
11.09.2019 18:00:00 17,9 13,5 13 7 22 12 SO 1022,0 10
11.09.2019 17:00:00 17,0 13,6 13 7 - - SO 1022,0 10
11.09.2019 16:00:00 15,9 13,6 22 12 36 19 SO 1021,8 10
11.09.2019 15:00:00 15,7 14,3 18 10 32 18 SO 1022,0 4,0
11.09.2019 14:00:00 16,4 13,6 22 12 - - SO 1022,0 10
11.09.2019 13:00:00 16,0 14,4 15 8 25 14 SSO 1021,9 8
11.09.2019 12:00:00 15,1 13,8 15 8 25 14 S 1021,8 7
11.09.2019 11:00:00 14,8 13,6 15 8 - - SSO 1022,1 8
11.09.2019 10:00:00 14,4 13,0 15 8 22 12 SO 1021,8 8
11.09.2019 09:00:00 14,4 12,4 15 8 22 12 SO 1021,6 9
11.09.2019 08:00:00 14,4 11,4 8 4 - - SSO 1021,2 10
11.09.2019 07:00:00 14,0 10,8 8 4 11 6 S 1020,9 10
11.09.2019 06:00:00 13,6 10,4 7 4 14 8 SSO 1020,9 18
11.09.2019 05:00:00 13,6 10,1 9 5 - - SSO 1021,3 10
11.09.2019 04:00:00 13,1 10,1 8 4 11 6 SSO 1021,3 10
11.09.2019 03:00:00 12,8 10,3 9 5 11 6 SO 1021,3 10
11.09.2019 02:00:00 12,5 10,3 4 2 - - SO 1021,3 10
11.09.2019 01:00:00 10,6 9,6 4 2 4 2 SSO 1021,0 10
11.09.2019 00:00:00 10,7 8,7 4 2 7 4 - 1021,2 10
10.09.2019 23:00:00 11,1 9,4 5 3 - - S 1021,2 10
10.09.2019 22:00:00 14,8 9,5 2 1 11 6 - 1021,0 10
10.09.2019 21:00:00 15,6 8,7 8 4 14 8 N 1020,5 10
10.09.2019 20:00:00 17,6 10,1 9 5 - - NNO 1019,9 10
10.09.2019 19:00:00 18,5 9,4 18 10 25 14 NO 1019,7 10
10.09.2019 18:00:00 19,7 7,3 9 5 25 14 O 1019,2 10
10.09.2019 17:00:00 19,7 7,5 8 4 - - NO 1018,7 10
10.09.2019 16:00:00 19,7 6,4 8 4 29 16 ONO 1018,8 10
10.09.2019 15:00:00 19,8 6,0 8 4 18 10 OSO 1018,9 10
10.09.2019 14:00:00 18,9 6,4 4 2 - - - 1018,9 10
10.09.2019 13:00:00 18,7 5,8 5 3 11 6 - 1018,6 10
10.09.2019 12:00:00 18,4 6,8 5 3 11 6 - 1018,7 10
10.09.2019 11:00:00 17,4 6,6 5 3 - - S 1018,5 10
10.09.2019 10:00:00 14,0 9,6 4 2 7 4 - 1018,0 10
10.09.2019 09:00:00 11,8 9,0 2 1 4 2 - 1017,5 10
10.09.2019 08:00:00 6,4 5,9 4 2 - - SSE 1016,7 10
10.09.2019 07:00:00 7,2 6,2 2 1 4 2 - 1016,3 10
10.09.2019 06:00:00 6,9 6,6 2 1 4 2 - 1016,3 10
10.09.2019 05:00:00 7,3 6,3 2 1 - - E 1016,1 10
10.09.2019 04:00:00 7,6 7,1 0 0 4 2 N 1016,2 10
10.09.2019 03:00:00 8,5 7,6 0 0 4 2 N 1015,8 10
10.09.2019 02:00:00 8,9 7,7 4 2 - - E 1015,5 10
10.09.2019 01:00:00 9,3 7,7 2 1 4 2 ESE 1015,4 10
10.09.2019 00:00:00 10,7 8,2 2 1 4 2 - 1015,3 10
09.09.2019 23:00:00 9,6 7,6 4 2 - - ESE 1015,2 10
09.09.2019 22:00:00 11,4 7,6 2 1 4 2 E 1014,9 10
09.09.2019 21:00:00 14,8 6,0 5 3 7 4 SSO 1014,7 10

tt = Temperatura
td = dewpoint
ff = velocità del vento
fx = gusts
dd = direzione del vento
ppp = reduced air pressure
vv = visibility

Stazioni seguenti

WeatherPro
AMSI
MeteoEarth